Location: Wingville
(42.9917°N, 90.4915°W)
Time: 10:20:30
(UTC+00:00)

Cosmos 1805 Rocket - Pass Details

Date: 07 December 2022
Orbit: 605 x 629 km, 82.5° (Epoch: 30 January)

Event Time Altitude Azimuth Distance (km) Brightness Sun altitude
Rises 23:25:24 0° 3° (N) 2,918 6.8 -10.4°
Reaches altitude 10° 23:27:57 10° 16° (NNE) 2,009 5.8 -10.8°
Maximum altitude 23:31:41 26° 73° (ENE) 1,256 4.5 -11.4°
Drops below altitude 10° 23:35:23 10° 130° (SE) 2,003 5.9 -12.1°
Sets 23:37:56 0° 143° (SE) 2,906 6.8 -12.5°
